Mansfield Lahm Regional Airport
KMFD : now visible

Airfield :











YOU CAN JOIN US ON...

 
LOGIN :

Register | Disclaimer

   EN    FR    IT 

 









Legend :    VFR   Marginal VFR   IFR   Intensive IFR   Very Intensive IFR
Visi :
Ceiling :
>= 8 km
>= 3000ft
5 to 8 km
1000 to 3000 ft
1500m to 5 km
500 to 1000 ft
800 to 1500m
200 to 500 ft
< 800m
< 200 ft
Symbols :   Thunderstorms  Fog  Heavy snow  Heavy precipitations  Wind > 20 kt







- Airport Elevation : 1297 ft


KMFD - Mansfield Lahm Regional

CURRENT METAR :
  • 181852Z 24006KT 10SM FEW036 31/22 A2999 RMK AO2 SLP142 T03060222

EXPIRED METARs :
  • 181752Z 26006KT 10SM CLR 30/22 A3000 RMK AO2 SLP147 T03000217 10300 20228 50002
  • 181652Z 23008KT 10SM FEW034 FEW042 30/22 A3001 RMK AO2 SLP149 T03000217

TAF KMFD
Valid from the 18 at 18:00 until the 19 at 18:00 UTC


181725Z 1818/1918 25006KT P6SM BKN250
FM182300 22007KT P6SM SCT250
FM191200 24010KT P6SM SCT040
FM191600 23010G20KT P6SM SCT100
KZOB FIR / North America



MET'MAP, your aeronautical weather chart ! - Copyright ORBIFLY December 2007 - Disclaimer

ORBIFLY MET'MAP TEAM :

Programming & Development : Alexandra Zaïnal
Concept & Development : Baudouin d'Aumeries
Co-Development & Prog : Marc-Olivier Méhu
Technical & hardware support : Manuel Goepfert

Contact : metmap@orbifly.com




SOURCES & CREDITS :

   NOAA       Earth
Advisory